QPF
0.00 0.00 0.00 0.00 0.00 0.00 0.00 0.00 0.00 0.00 0.00 0.00 0.00 0.00 0.00 0.00 0.00 0.00 0.00 0.05 0.05 0.06 0.08 0.05 0.01 0.01 0.01 0.00 0.00 0.00 0.00 0.00 0.00 0.00 0.00 0.00 0.01 0.01 0.04 0.07 0.07 0.16 0.20
0.00 0.00 0.00 0.00 0.00 0.00 0.00 0.00 0.00 0.00 0.00 0.01 0.00 0.00 0.00 0.00 0.00 0.00 0.00 0.02 0.03 0.04 0.02 0.01 0.01 0.01 0.00 0.00 0.00 0.00 0.00 0.00 0.00 0.01 0.01 0.01 0.02 0.02 0.03 0.04 0.03 0.05 0.10
0.00 0.00 0.00 0.00 0.00 0.00 0.00 0.00 0.00 0.00 0.00 0.00 0.00 0.00 0.00 0.00 0.05 0.01 0.00 0.02 0.01 0.00 0.01 0.01 0.01 0.01 0.01 0.01 0.01 0.00 0.00 0.00 0.00 0.00 0.00 0.01 0.01 0.01 0.02 0.02 0.02 0.03 0.06
0.00 0.00 0.00 0.00 0.00 0.00 0.00 0.00 0.00 0.00 0.00 0.00 0.00 0.00 0.03 0.04 0.01 0.00 0.00 0.00 0.00 0.00 0.00 0.00 0.00 0.03 0.04 0.02 0.03 0.02 0.02 0.01 0.01 0.01 0.01 0.01 0.01 0.01 0.02 0.02 0.02 0.01 0.02
0.00 0.00 0.00 0.00 0.00 0.00 0.00 0.00 0.00 0.04 0.01 0.00 0.00 0.00 0.04 0.03 0.00 0.00 0.00 0.00 0.00 0.00 0.00 0.00 0.00 0.01 0.01 0.02 0.02 0.02 0.02 0.02 0.01 0.01 0.01 0.01 0.01 0.01 0.01 0.01 0.01 0.00 0.00
0.00 0.00 0.00 0.00 0.00 0.00 0.00 0.00 0.00 0.03 0.04 0.00 0.00 0.01 0.01 0.01 0.00 0.01 0.00 0.00 0.00 0.00 0.00 0.00 0.00 0.00 0.00 0.00 0.01 0.02 0.01 0.00 0.00 0.00 0.00 0.00 0.00 0.00 0.00 0.00 0.00 0.01 0.01
0.00 0.01 0.00 0.00 0.00 0.00 0.00 0.00 0.01 0.09 0.07 0.01 0.03 0.04 0.04 0.01 0.00 0.00 0.00 0.00 0.00 0.00 0.00 0.00 0.00 0.00 0.00 0.00 0.00 0.00 0.00 0.00 0.00 0.00 0.00 0.00 0.00 0.00 0.00 0.00 0.00 0.01 0.00
0.00 0.00 0.00 0.00 0.00 0.00 0.00 0.00 0.00 0.21 0.11 0.05 0.04 0.07 0.12 0.12 0.07 0.01 0.00 0.00 0.00 0.00 0.00 0.00 0.00 0.00 0.00 0.00 0.00 0.00 0.00 0.00 0.00 0.00 0.00 0.00 0.00 0.00 0.00 0.00 0.00 0.00 0.00
0.00 0.00 0.00 0.00 0.00 0.00 0.00 0.00 0.00 0.05 0.14 0.05 0.01 0.03 0.06 0.14 0.06 0.05 0.00 0.00 0.00 0.00 0.00 0.00 0.00 0.00 0.00 0.00 0.00 0.00 0.00 0.00 0.00 0.00 0.00 0.00 0.00 0.00 0.00 0.00 0.00 0.00 0.00
0.00 0.00 0.00 0.00 0.00 0.00 0.00 0.00 0.00 0.01 0.15 0.09 0.02 0.00 0.01 0.04 0.06 0.03 0.01 0.00 0.00 0.00 0.00 0.00 0.00 0.00 0.00 0.00 0.00 0.00 0.00 0.00 0.00 0.00 0.00 0.00 0.00 0.00 0.00 0.00 0.00 0.00 0.00
0.00 0.00 0.00 0.00 0.00 0.00 0.00 0.00 0.00 0.03 0.09 0.07 0.03 0.00 0.01 0.00 0.04 0.02 0.01 0.00 0.00 0.00 0.00 0.00 0.00 0.00 0.00 0.00 0.00 0.00 0.00 0.00 0.00 0.00 0.00 0.00 0.00 0.00 0.00 0.00 0.00 0.00 0.00
0.00 0.00 0.00 0.00 0.00 0.00 0.00 0.00 0.00 0.04 0.09 0.06 0.01 0.00 0.00 0.00 0.01 0.01 0.01 0.01 0.00 0.00 0.00 0.00 0.00 0.00 0.00 0.00 0.00 0.00 0.00 0.00 0.00 0.00 0.00 0.00 0.00 0.00 0.00 0.00 0.00 0.00 0.00
0.00 0.00 0.00 0.00 0.00 0.00 0.00 0.00 0.00 0.07 0.08 0.05 0.00 0.00 0.00 0.00 0.00 0.01 0.01 0.01 0.01 0.00 0.00 0.00 0.00 0.00 0.00 0.00 0.00 0.00 0.00 0.00 0.00 0.00 0.00 0.00 0.00 0.00 0.00 0.00 0.00 0.00 0.00
0.00 0.00 0.00 0.00 0.00 0.00 0.00 0.00 0.01 0.08 0.09 0.02 0.00 0.00 0.00 0.00 0.00 0.00 0.00 0.01 0.01 0.02 0.03 0.01 0.00 0.00 0.00 0.00 0.00 0.00 0.00 0.00 0.00 0.00 0.00 0.00 0.00 0.00 0.00 0.00 0.00 0.00 0.00
0.00 0.00 0.00 0.00 0.00 0.00 0.00 0.01 0.04 0.08 0.08 0.01 0.00 0.00 0.00 0.00 0.00 0.00 0.00 0.00 0.00 0.02 0.02 0.00 0.00 0.00 0.00 0.00 0.00 0.00 0.00 0.00 0.00 0.00 0.00 0.00 0.00 0.00 0.00 0.00 0.00 0.00 0.00
0.00 0.04 0.06 0.05 0.01 0.00 0.01 0.04 0.03 0.01 0.01 0.00 0.00 0.00 0.00 0.00 0.00 0.00 0.00 0.00 0.00 0.00 0.01 0.00 0.01 0.00 0.00 0.00 0.00 0.00 0.00 0.00 0.00 0.00 0.00 0.00 0.00 0.00 0.00 0.00 0.00 0.00 0.00
0.01 0.04 0.08 0.05 0.09 0.04 0.03 0.04 0.01 0.00 0.00 0.00 0.00 0.00 0.00 0.00 0.00 0.00 0.00 0.00 0.00 0.00 0.00 0.00 0.00 0.00 0.00 0.00 0.00 0.00 0.00 0.00 0.00 0.00 0.00 0.00 0.00 0.00 0.00 0.00 0.00 0.00 0.00
0.01 0.02 0.06 0.03 0.02 0.02 0.01 0.00 0.00 0.00 0.00 0.00 0.00 0.00 0.00 0.00 0.00 0.00 0.00 0.00 0.00 0.00 0.00 0.00 0.00 0.00 0.01 0.00 0.00 0.00 0.00 0.00 0.00 0.00 0.00 0.00 0.00 0.00 0.00 0.00 0.00 0.00 0.00
0.11 0.01 0.03 0.01 0.00 0.00 0.00 0.00 0.00 0.00 0.00 0.00 0.00 0.00 0.00 0.00 0.00 0.00 0.00 0.00 0.00 0.00 0.00 0.00 0.00 0.00 0.00 0.00 0.00 0.00 0.00 0.00 0.00 0.00 0.00 0.00 0.00 0.00 0.00 0.00 0.00 0.00 0.00
0.12 0.12 0.04 0.01 0.00 0.00 0.00 0.00 0.00 0.00 0.00 0.00 0.00 0.00 0.00 0.00 0.00 0.00 0.00 0.00 0.00 0.00 0.00 0.00 0.00 0.00 0.00 0.00 0.00 0.00 0.00 0.00 0.00 0.00 0.00 0.00 0.00 0.00 0.00 0.00 0.00 0.00 0.00
0.28 0.16 0.09 0.02 0.00 0.00 0.00 0.00 0.00 0.00 0.00 0.00 0.00 0.00 0.00 0.00 0.00 0.00 0.00 0.00 0.00 0.00 0.00 0.00 0.00 0.00 0.00 0.00 0.00 0.00 0.00 0.00 0.00 0.00 0.00 0.00 0.00 0.00 0.00 0.00 0.00 0.00 0.00
0.05 0.01 0.02 0.02 0.00 0.00 0.00 0.00 0.00 0.00 0.00 0.00 0.00 0.00 0.00 0.00 0.00 0.00 0.00 0.00 0.00 0.00 0.00 0.00 0.00 0.00 0.00 0.00 0.00 0.00 0.00 0.00 0.00 0.00 0.00 0.00 0.00 0.00 0.00 0.00 0.00 0.00 0.00
0.06 0.04 0.04 0.00 0.00 0.00 0.00 0.00 0.00 0.00 0.00 0.00 0.00 0.00 0.00 0.00 0.00 0.00 0.00 0.00 0.00 0.00 0.00 0.00 0.00 0.00 0.00 0.00 0.00 0.00 0.00 0.00 0.00 0.00 0.00 0.00 0.00 0.00 0.00 0.00 0.00 0.00 0.00
0.04 0.04 0.03 0.00 0.00 0.00 0.00 0.00 0.00 0.00 0.00 0.00 0.00 0.00 0.00 0.00 0.00 0.00 0.00 0.00 0.00 0.00 0.00 0.00 0.00 0.00 0.00 0.00 0.00 0.00 0.00 0.00 0.00 0.00 0.00 0.00 0.00 0.00 0.00 0.00 0.00 0.00 0.00
0.00 0.00 0.02 0.01 0.00 0.00 0.00 0.00 0.00 0.00 0.00 0.00 0.00 0.00 0.00 0.00 0.00 0.00 0.00 0.00 0.00 0.00 0.00 0.00 0.00 0.00 0.00 0.00 0.00 0.00 0.00 0.00 0.00 0.00 0.00 0.00 0.00 0.00 0.00 0.00 0.00 0.00 0.00
0.00 0.00 0.04 0.00 0.00 0.00 0.00 0.00 0.00 0.00 0.00 0.00 0.00 0.00 0.00 0.00 0.00 0.00 0.00 0.00 0.00 0.00 0.00 0.00 0.00 0.00 0.00 0.00 0.00 0.00 0.00 0.00 0.00 0.00 0.00 0.00 0.00 0.00 0.00 0.00 0.00 0.00 0.00
MSLP
1018.17 1017.81 1017.76 1017.52 1017.53 1017.36 1017.08 1016.93 1016.76 1016.51 1016.17 1016.06 1015.75 1015.91 1015.67 1015.57 1015.30 1015.84 1016.99 1017.57 1017.27 1017.08 1016.93 1016.76 1016.63 1016.61 1016.61 1016.52 1016.50 1016.51 1016.56 1016.63 1016.61 1016.51 1016.37 1016.34 1016.26 1016.11 1016.13 1015.89 1015.92 1016.11 1016.19
1018.29 1017.81 1017.79 1017.63 1017.83 1017.74 1017.45 1017.26 1017.08 1016.73 1016.11 1016.08 1016.43 1016.31 1015.92 1015.85 1016.16 1015.96 1016.79 1017.72 1017.98 1017.74 1017.58 1017.35 1017.22 1017.10 1017.14 1017.14 1017.05 1017.04 1017.05 1017.00 1016.97 1016.86 1016.69 1016.53 1016.40 1016.16 1016.03 1015.82 1015.76 1015.69 1015.68
1018.52 1018.35 1017.91 1017.79 1017.91 1017.99 1017.76 1017.33 1016.94 1016.39 1016.17 1016.07 1016.75 1016.60 1016.47 1016.68 1017.36 1016.65 1016.50 1016.51 1017.51 1018.34 1018.23 1018.14 1017.98 1017.80 1017.72 1017.73 1017.63 1017.54 1017.54 1017.48 1017.33 1017.19 1017.05 1016.88 1016.74 1016.60 1016.46 1016.22 1015.96 1015.80 1015.60
1018.66 1018.38 1017.87 1017.93 1018.34 1017.94 1017.59 1017.30 1017.14 1016.58 1016.54 1016.67 1016.71 1016.81 1017.30 1017.17 1017.20 1017.33 1017.31 1017.23 1017.25 1017.59 1018.81 1018.90 1018.71 1018.59 1018.42 1018.34 1018.33 1018.19 1018.13 1018.04 1017.95 1017.82 1017.68 1017.52 1017.28 1017.06 1016.81 1016.61 1016.40 1016.07 1015.76
1018.65 1018.22 1017.92 1018.11 1018.31 1017.89 1017.77 1017.62 1017.33 1017.63 1016.71 1016.87 1016.93 1017.24 1017.79 1017.55 1017.31 1017.60 1017.86 1017.96 1017.98 1017.73 1018.40 1019.34 1019.35 1019.23 1019.02 1018.90 1018.82 1018.74 1018.66 1018.66 1018.57 1018.48 1018.26 1018.08 1017.91 1017.71 1017.48 1017.18 1016.89 1016.53 1016.02
1018.72 1018.64 1018.11 1018.34 1018.18 1017.92 1017.82 1018.10 1018.08 1018.05 1017.57 1017.06 1017.01 1018.04 1018.13 1017.89 1017.77 1017.90 1017.96 1018.27 1018.48 1018.57 1018.65 1018.69 1018.93 1019.59 1019.76 1019.65 1019.41 1019.30 1019.22 1019.18 1019.07 1019.00 1018.85 1018.69 1018.52 1018.35 1018.12 1017.78 1017.44 1017.08 1016.56
1018.90 1018.87 1018.15 1018.34 1018.34 1018.18 1018.50 1018.42 1018.03 1018.34 1018.14 1017.61 1017.85 1018.36 1018.80 1018.43 1018.36 1018.35 1018.23 1018.52 1018.95 1019.53 1019.36 1019.55 1019.38 1019.24 1019.54 1020.20 1020.12 1019.85 1019.70 1019.64 1019.59 1019.53 1019.39 1019.25 1019.02 1018.84 1018.64 1018.33 1017.98 1017.69 1017.26
1018.88 1018.93 1018.89 1018.31 1018.54 1018.18 1018.43 1018.67 1018.54 1018.51 1018.10 1017.87 1017.75 1018.00 1018.61 1019.27 1019.39 1019.01 1019.03 1019.50 1020.03 1020.30 1020.03 1020.26 1020.24 1020.35 1020.06 1020.46 1020.98 1020.79 1020.52 1020.32 1020.29 1020.17 1020.03 1019.84 1019.65 1019.44 1019.16 1018.86 1018.57 1018.17 1017.82
1018.88 1018.88 1018.85 1018.84 1018.67 1018.49 1018.03 1018.58 1018.43 1018.17 1018.15 1017.89 1017.73 1017.22 1017.06 1017.99 1019.16 1019.69 1019.88 1020.37 1020.81 1020.43 1020.27 1020.65 1020.90 1021.11 1021.06 1020.92 1020.97 1021.51 1021.48 1021.25 1021.03 1020.87 1020.69 1020.52 1020.30 1020.08 1019.84 1019.60 1019.18 1018.79 1018.42
1018.72 1018.68 1018.76 1018.82 1018.79 1018.41 1018.57 1018.40 1018.24 1018.46 1018.31 1017.97 1017.45 1017.43 1017.61 1017.47 1017.93 1019.83 1020.48 1020.61 1020.54 1020.59 1020.24 1020.31 1020.83 1021.20 1021.34 1021.86 1022.47 1022.56 1022.36 1022.10 1021.83 1021.61 1021.39 1021.08 1020.86 1020.64 1020.41 1020.14 1019.80 1019.48 1019.08
1018.51 1018.54 1018.70 1018.43 1018.60 1018.46 1018.43 1018.52 1018.45 1018.32 1018.44 1018.30 1017.37 1017.14 1017.41 1017.32 1017.73 1017.84 1019.42 1020.13 1020.48 1020.91 1020.73 1020.62 1020.97 1021.44 1021.91 1022.19 1022.72 1023.29 1023.11 1022.78 1022.49 1022.31 1022.12 1021.87 1021.54 1021.33 1021.13 1020.85 1020.60 1020.29 1019.94
1017.69 1018.29 1018.60 1018.35 1018.26 1018.22 1018.28 1018.21 1018.23 1018.18 1018.33 1018.31 1017.50 1017.44 1017.11 1016.71 1016.82 1017.21 1017.99 1019.37 1020.21 1020.91 1021.03 1020.83 1021.18 1021.66 1022.26 1022.83 1023.51 1023.81 1023.69 1023.48 1023.31 1023.09 1022.89 1022.70 1022.44 1022.24 1021.98 1021.69 1021.36 1021.08 1020.82
1016.54 1017.07 1018.00 1018.21 1017.97 1018.07 1017.93 1017.89 1018.00 1017.93 1018.23 1018.28 1017.89 1017.39 1017.38 1016.94 1017.08 1017.15 1017.66 1019.06 1019.89 1020.83 1020.75 1020.98 1021.30 1021.71 1022.25 1022.92 1023.69 1023.92 1024.27 1024.14 1024.01 1023.85 1023.72 1023.58 1023.46 1023.19 1022.97 1022.65 1022.36 1022.05 1021.73
1016.07 1016.25 1017.05 1017.56 1017.55 1017.52 1017.57 1017.61 1017.58 1017.72 1018.05 1017.96 1018.00 1017.94 1017.32 1017.18 1017.29 1017.29 1017.22 1018.28 1019.02 1020.00 1020.93 1021.24 1021.73 1021.74 1022.28 1022.93 1023.81 1024.17 1024.35 1024.47 1024.42 1024.37 1024.29 1024.24 1024.12 1023.95 1023.93 1023.75 1023.51 1023.12 1022.70
1015.69 1016.33 1016.60 1017.01 1016.99 1017.04 1017.16 1017.20 1017.39 1017.64 1017.96 1017.78 1017.85 1018.04 1017.74 1017.53 1017.45 1017.39 1017.48 1017.33 1018.14 1018.96 1020.23 1021.28 1021.31 1021.58 1022.52 1023.00 1023.52 1023.39 1023.96 1024.81 1024.74 1024.84 1024.80 1024.75 1024.81 1024.80 1024.59 1024.35 1024.13 1023.75 1023.48
1016.04 1016.12 1016.53 1016.78 1016.81 1016.91 1016.91 1017.18 1017.30 1017.58 1017.74 1017.77 1017.75 1018.10 1018.10 1017.75 1017.64 1017.68 1017.57 1017.55 1017.85 1018.20 1019.15 1020.18 1021.09 1021.65 1022.15 1022.63 1023.42 1023.33 1024.01 1024.68 1025.03 1025.16 1025.22 1025.21 1025.11 1025.06 1025.03 1024.82 1024.72 1024.49 1024.04
1015.90 1016.25 1016.48 1016.55 1016.74 1016.95 1017.12 1017.34 1017.22 1017.61 1017.90 1018.12 1018.16 1018.32 1018.40 1018.45 1017.88 1017.95 1018.00 1017.83 1017.82 1018.11 1019.16 1019.82 1021.00 1021.77 1022.44 1022.53 1023.26 1023.49 1024.08 1023.73 1024.83 1025.27 1025.34 1025.39 1025.29 1025.23 1025.06 1024.91 1024.67 1024.63 1024.53
1015.60 1015.92 1016.23 1016.55 1016.78 1016.96 1017.24 1017.17 1017.47 1017.60 1017.90 1018.06 1018.38 1018.44 1018.53 1018.41 1018.57 1018.57 1018.28 1018.43 1018.07 1018.64 1018.45 1019.89 1020.73 1021.97 1022.18 1022.55 1022.93 1023.22 1022.69 1022.49 1023.37 1025.13 1025.36 1025.56 1025.52 1025.49 1025.16 1025.08 1024.97 1025.12 1025.11
1015.45 1015.71 1016.11 1016.44 1016.76 1016.92 1017.27 1017.45 1017.67 1017.79 1017.96 1018.28 1018.59 1018.53 1018.72 1018.78 1018.78 1018.46 1018.51 1018.69 1018.85 1019.13 1019.70 1019.78 1020.59 1020.97 1021.67 1022.19 1022.99 1023.02 1023.08 1022.76 1022.85 1024.63 1025.27 1025.48 1025.55 1025.56 1025.37 1025.18 1025.18 1025.18 1025.21
1015.28 1015.39 1015.87 1016.24 1016.83 1016.87 1017.28 1017.66 1017.81 1017.97 1018.12 1018.55 1018.66 1018.78 1018.99 1019.03 1019.08 1019.16 1018.87 1019.00 1019.18 1019.26 1019.63 1019.91 1020.41 1021.00 1021.45 1021.97 1022.04 1022.10 1022.73 1022.81 1022.34 1022.64 1024.09 1024.15 1025.06 1025.32 1025.36 1025.36 1025.29 1025.43 1025.54
1014.78 1015.28 1015.67 1016.05 1016.71 1016.97 1017.11 1017.69 1017.84 1018.00 1018.24 1018.62 1018.83 1019.00 1019.17 1019.45 1019.62 1019.61 1019.28 1019.39 1019.89 1019.57 1019.69 1019.89 1020.18 1020.64 1021.01 1021.54 1021.57 1021.61 1021.48 1021.93 1023.13 1022.70 1022.71 1023.35 1023.54 1023.83 1024.41 1025.15 1025.15 1025.36 1025.41
1014.37 1014.79 1015.23 1015.91 1016.91 1016.84 1017.39 1017.79 1017.83 1018.14 1018.60 1018.86 1018.85 1018.97 1019.45 1019.77 1020.05 1020.21 1020.17 1020.34 1020.32 1020.32 1020.04 1019.86 1020.08 1020.24 1021.06 1021.31 1021.41 1021.61 1021.61 1022.16 1022.31 1023.03 1023.11 1022.78 1023.25 1022.75 1022.83 1023.44 1024.51 1025.11 1025.38
1014.15 1014.76 1015.21 1015.73 1016.55 1017.03 1017.60 1017.99 1018.19 1018.10 1018.60 1018.62 1018.87 1019.02 1019.01 1019.39 1019.96 1020.22 1020.63 1020.80 1021.06 1021.13 1021.13 1020.77 1020.59 1020.89 1021.24 1021.55 1021.59 1022.20 1021.96 1022.09 1021.87 1022.68 1023.21 1022.13 1022.90 1022.66 1022.95 1023.69 1024.34 1024.90 1025.24
1014.04 1014.65 1015.13 1015.91 1016.42 1017.00 1017.68 1018.24 1018.34 1018.33 1018.56 1018.73 1018.89 1019.08 1019.04 1019.72 1019.95 1019.97 1020.07 1020.42 1020.85 1021.27 1021.09 1020.51 1020.89 1021.13 1021.24 1021.78 1022.20 1022.20 1022.40 1022.44 1022.65 1022.52 1022.91 1021.99 1022.46 1022.26 1022.71 1022.73 1024.13 1024.62 1024.82
1013.70 1014.40 1015.03 1015.78 1016.53 1017.16 1017.75 1018.10 1018.29 1018.34 1018.65 1018.86 1018.91 1019.21 1019.56 1019.82 1020.34 1020.30 1020.20 1020.40 1020.73 1021.22 1022.14 1021.92 1021.96 1022.17 1022.31 1022.56 1022.45 1022.12 1022.15 1021.81 1021.34 1021.69 1022.57 1022.04 1022.07 1022.14 1022.41 1022.26 1022.54 1023.68 1024.09
1013.75 1014.33 1015.07 1015.71 1016.04 1016.47 1017.66 1017.92 1018.18 1017.89 1018.34 1018.49 1018.92 1019.27 1019.81 1019.91 1020.35 1020.61 1020.55 1020.56 1020.64 1020.90 1021.05 1021.67 1021.93 1022.40 1022.47 1022.74 1022.99 1022.33 1021.62 1021.19 1020.92 1021.06 1021.70 1021.92 1021.80 1021.94 1021.41 1021.74 1022.00 1022.61 1022.55
Thickness
5787 5790 5791 5792 5792 5793 5795 5796 5797 5797 5799 5797 5798 5795 5796 5795 5796 5791 5780 5775 5775 5775 5774 5772 5771 5770 5767 5765 5763 5760 5758 5755 5754 5753 5751 5749 5747 5746 5745 5745 5743 5740 5738
5786 5790 5791 5792 5790 5791 5793 5794 5794 5796 5800 5798 5794 5794 5796 5796 5793 5793 5784 5776 5772 5771 5771 5771 5770 5768 5766 5763 5761 5759 5757 5755 5752 5751 5751 5750 5750 5749 5749 5749 5746 5745 5744
5784 5786 5790 5791 5790 5791 5792 5794 5796 5800 5802 5800 5794 5794 5795 5793 5786 5791 5790 5787 5777 5769 5768 5766 5766 5765 5763 5761 5759 5757 5755 5753 5752 5751 5750 5749 5748 5748 5747 5746 5746 5745 5746
5782 5785 5790 5790 5787 5791 5795 5796 5797 5800 5801 5799 5798 5796 5791 5791 5790 5788 5786 5785 5782 5776 5765 5763 5762 5761 5760 5758 5756 5754 5752 5751 5749 5748 5747 5745 5745 5745 5745 5745 5744 5744 5744
5781 5786 5789 5788 5788 5791 5793 5795 5796 5793 5801 5799 5798 5796 5791 5792 5792 5788 5784 5781 5779 5778 5770 5762 5760 5758 5758 5756 5754 5752 5750 5747 5745 5743 5743 5743 5742 5741 5740 5741 5740 5740 5743
5777 5781 5786 5786 5789 5792 5794 5792 5790 5792 5796 5800 5799 5790 5790 5792 5790 5788 5785 5779 5776 5773 5770 5768 5765 5758 5754 5752 5750 5749 5747 5744 5742 5741 5740 5739 5737 5737 5737 5738 5738 5738 5740
5775 5777 5784 5784 5787 5790 5787 5790 5793 5788 5790 5797 5791 5786 5784 5789 5788 5786 5784 5779 5773 5768 5767 5763 5762 5761 5756 5749 5747 5746 5744 5742 5739 5737 5736 5734 5735 5735 5734 5735 5735 5735 5736
5774 5776 5778 5784 5784 5789 5788 5787 5788 5786 5791 5796 5789 5787 5774 5775 5779 5782 5780 5774 5768 5764 5763 5759 5757 5754 5753 5748 5742 5740 5738 5736 5734 5733 5731 5731 5731 5731 5732 5732 5733 5733 5732
5772 5775 5776 5778 5781 5784 5790 5788 5790 5791 5786 5794 5796 5795 5788 5776 5775 5776 5773 5769 5763 5764 5762 5757 5753 5749 5746 5744 5740 5733 5730 5729 5728 5728 5728 5728 5728 5728 5728 5727 5728 5728 5728
5770 5772 5774 5776 5777 5782 5784 5789 5792 5789 5789 5788 5797 5800 5798 5796 5781 5760 5767 5767 5767 5764 5764 5760 5754 5749 5745 5737 5729 5725 5724 5722 5723 5724 5725 5725 5725 5726 5725 5724 5724 5724 5724
5767 5770 5770 5773 5775 5779 5784 5786 5788 5789 5788 5788 5796 5798 5797 5799 5795 5785 5764 5764 5766 5762 5761 5758 5753 5747 5740 5735 5728 5720 5718 5718 5719 5719 5719 5720 5721 5721 5720 5720 5719 5719 5719
5772 5768 5767 5770 5774 5778 5782 5786 5788 5790 5788 5790 5798 5798 5798 5798 5795 5791 5781 5770 5762 5759 5759 5757 5752 5745 5737 5730 5722 5716 5715 5713 5713 5713 5713 5713 5713 5712 5712 5713 5713 5712 5712
5778 5776 5768 5767 5774 5777 5782 5785 5787 5791 5788 5788 5793 5797 5799 5801 5800 5796 5787 5771 5763 5759 5759 5757 5750 5744 5737 5729 5721 5716 5711 5709 5708 5707 5706 5705 5702 5703 5703 5704 5703 5703 5704
5779 5780 5775 5772 5774 5779 5782 5784 5789 5790 5788 5791 5792 5794 5799 5801 5800 5797 5792 5777 5768 5761 5754 5750 5747 5743 5736 5729 5720 5715 5709 5707 5704 5702 5699 5697 5698 5697 5692 5692 5692 5693 5695
5780 5776 5776 5775 5777 5779 5781 5784 5787 5787 5787 5791 5793 5793 5796 5798 5799 5798 5794 5793 5777 5761 5752 5748 5745 5743 5734 5727 5721 5719 5712 5705 5702 5696 5695 5694 5689 5686 5687 5688 5687 5688 5689
5774 5775 5774 5775 5776 5777 5778 5781 5784 5786 5787 5790 5793 5791 5793 5796 5796 5795 5794 5793 5787 5777 5760 5759 5747 5742 5735 5728 5720 5718 5711 5703 5698 5693 5691 5689 5689 5687 5685 5685 5684 5684 5684
5773 5771 5772 5774 5774 5774 5774 5776 5781 5782 5782 5785 5788 5789 5789 5789 5792 5792 5790 5791 5787 5782 5761 5759 5749 5740 5732 5729 5721 5716 5709 5708 5697 5692 5690 5687 5686 5684 5684 5683 5684 5682 5680
5772 5772 5772 5771 5771 5771 5770 5772 5777 5780 5781 5783 5784 5785 5786 5787 5786 5786 5787 5784 5784 5778 5774 5752 5748 5736 5733 5727 5723 5718 5718 5716 5706 5693 5688 5682 5680 5680 5681 5681 5681 5678 5675
5767 5770 5768 5767 5767 5769 5769 5772 5774 5776 5779 5780 5781 5784 5783 5783 5783 5785 5784 5781 5778 5773 5764 5757 5745 5743 5736 5729 5721 5718 5715 5714 5710 5696 5687 5683 5680 5679 5679 5678 5676 5673 5670
5764 5767 5767 5766 5763 5766 5767 5768 5770 5772 5775 5776 5779 5781 5780 5781 5780 5779 5781 5779 5775 5770 5762 5754 5745 5738 5734 5731 5728 5723 5716 5713 5714 5708 5695 5690 5683 5680 5678 5675 5672 5666 5661
5765 5763 5763 5763 5761 5762 5765 5764 5768 5770 5773 5773 5775 5777 5777 5776 5774 5776 5780 5776 5769 5767 5760 5752 5745 5740 5735 5729 5726 5727 5725 5719 5707 5707 5704 5696 5692 5688 5681 5673 5667 5661 5656
5763 5763 5763 5760 5753 5759 5757 5759 5766 5767 5768 5768 5772 5773 5772 5771 5770 5770 5771 5768 5768 5760 5756 5753 5747 5742 5734 5732 5730 5725 5722 5713 5707 5703 5699 5699 5691 5692 5688 5680 5668 5659 5651
5761 5758 5758 5757 5752 5752 5751 5756 5760 5766 5766 5769 5770 5770 5774 5774 5770 5771 5767 5763 5758 5754 5750 5749 5743 5738 5733 5730 5727 5716 5717 5714 5713 5705 5699 5702 5693 5690 5684 5674 5665 5655 5647
5757 5754 5754 5752 5750 5749 5747 5750 5756 5761 5763 5765 5766 5769 5772 5768 5768 5771 5771 5766 5760 5752 5747 5749 5744 5739 5736 5728 5721 5718 5714 5711 5707 5705 5699 5699 5695 5691 5683 5677 5663 5654 5647
5756 5752 5752 5748 5744 5743 5746 5749 5752 5757 5758 5759 5763 5767 5766 5766 5761 5764 5767 5762 5757 5749 5740 5741 5738 5733 5730 5724 5720 5718 5714 5713 5713 5708 5699 5698 5694 5688 5681 5677 5671 5659 5650
5752 5749 5745 5743 5744 5743 5743 5746 5750 5759 5757 5760 5761 5763 5760 5763 5759 5760 5762 5759 5754 5750 5746 5739 5735 5729 5726 5721 5717 5716 5719 5716 5715 5709 5705 5697 5692 5686 5683 5678 5669 5660 5654